This is the latest recevied weather packets stored in our database for station/object NE8U. If no packets are shown the sender has not sent any weather packets the latest 10 day(s).
| Time | Temp. | Humidity | Pressure | Rain* | Wind** | Luminosity | Snow |
|---|---|---|---|---|---|---|---|
| 1777843230 | 31.11° C | 24% | 1012.5 hPa | 0 mm | - | 388 W/m² | - |
| 1777842927 | 31.11° C | 24% | 1012.5 hPa | 0 mm | - | 456 W/m² | - |
| 1777842623 | 30.56° C | 24% | 1012.6 hPa | 0 mm | - | 418 W/m² | - |
| 1777842320 | 30.56° C | 25% | 1012.6 hPa | 0 mm | - | 348 W/m² | - |
| 1777842015 | 30.56° C | 25% | 1012.7 hPa | 0 mm | - | 384 W/m² | - |
| 1777841712 | 31.11° C | 25% | 1012.5 hPa | 0 mm | - | 396 W/m² | - |
| 1777841409 | 31.11° C | 24% | 1012.8 hPa | 0 mm | - | 465 W/m² | - |
| 1777841106 | 30.56° C | 25% | 1012.7 hPa | 0 mm | - | 485 W/m² | - |
| 1777840803 | 30° C | 25% | 1013 hPa | 0 mm | - | 472 W/m² | - |
| 1777840500 | 30° C | 25% | 1012.9 hPa | 0 mm | - | 379 W/m² | - |
| 1777840196 | 30° C | 25% | 1012.9 hPa | 0 mm | - | 390 W/m² | - |
| 1777839895 | 30° C | 25% | 1013 hPa | 0 mm | - | 368 W/m² | - |
| 1777839593 | 30° C | 25% | 1013 hPa | 0 mm | - | 333 W/m² | - |
| 1777839290 | 30° C | 26% | 1013.1 hPa | 0 mm | - | 308 W/m² | - |
| 1777838987 | 30° C | 26% | 1013.1 hPa | 0 mm | - | 299 W/m² | - |
| 1777838684 | 29.44° C | 26% | 1013.2 hPa | 0 mm | - | 295 W/m² | - |
| 1777838380 | 29.44° C | 26% | 1013.4 hPa | 0 mm | - | 305 W/m² | - |
| 1777838078 | 29.44° C | 26% | 1013.5 hPa | 0 mm | - | 331 W/m² | - |
| 1777837774 | 29.44° C | 27% | 1013.7 hPa | 0 mm | - | 346 W/m² | - |
| 1777837471 | 29.44° C | 27% | 1013.7 hPa | 0 mm | - | 342 W/m² | - |
| 1777837166 | 29.44° C | 28% | 1013.6 hPa | 0 mm | - | 330 W/m² | - |
| 1777836862 | 29.44° C | 28% | 1013.8 hPa | 0 mm | - | 340 W/m² | - |
| 1777836558 | 29.44° C | 27% | 1013.9 hPa | 0 mm | - | 364 W/m² | - |
| 1777836255 | 28.89° C | 28% | 1014 hPa | 0 mm | - | 347 W/m² | - |
| 1777835950 | 28.89° C | 29% | 1014 hPa | 0 mm | - | 368 W/m² | - |
* Rain latest hour (hover to see other rain measurements)
** Current wind speed in m/s (hover to see current wind gust speed)